Flag for Bosnia-Herzegovina Weather past 2 weeks in Sarajevo, Bosnia-Herzegovina

32 °F

Light snow. Ice fog.

Feels Like: 32 °F
Forecast: 29 / 35 °F
Wind: 1 mph from North

Location: Sarajevo / Butmir

Current Time: Nov 25, 2015 at 7:29:26 PM

Latest Report: Nov 25, 2015 at 7:00 PM

Visibility: 1 mi

Pressure: 29.71 "Hg (27.82 "Hg at 526m altitude)

Humidity: 100%

Dew point: 32 °F

Location of SarajevoLocation

Historic Weather in Sarajevo — Graph


Sarajevo temperature yesterday

Maximum temperature yesterday: 36 °F (at 12:00 AM)
Minimum temperature yesterday: 32 °F (at 2:00 PM)
Average temperature yesterday: 34 °F

Past Weeks' High & Low Weather Summary

High66 °F (Nov 16, 2:00 PM)100% (Nov 10, 9:00 PM)30.45 "Hg (Nov 10, 9:00 PM)
Low28 °F (Nov 18, 7:00 AM)39% (Nov 17, 1:30 PM)29.24 "Hg (Nov 21, 2:30 PM)
Average42 °F88%30.08 "Hg
* Reported Nov 10 6:00 PM — Nov 25 6:30 PM, Sarajevo, Weather by CustomWeather, © 2015

Note: Actual official high and low records may vary slightly from our data, if they occured in-between our weather recording intervals... More about our weather records


Sarajevo weather history for previous 24 hours

Time TempWeatherWind HumidityBarometerVisibility
6:30 PM
Wed, Nov 25
32 °FSnow. Ice fog.2 mph100%29.71 "Hg1 mi
6:00 PM32 °FSnow. Ice fog.2 mph100%29.71 "Hg1 mi
5:30 PM32 °FLight snow. Ice fog.3 mph100%29.74 "Hg1 mi
5:00 PM32 °FLight snow. Ice fog.3 mph100%29.74 "Hg1 mi
4:30 PM32 °FLight snow. Ice fog.5 mph100%29.74 "Hg1 mi
4:00 PM34 °FLight snow. Fog.5 mph93%29.74 "Hg1 mi
3:30 PM34 °FLight snow. Fog.3 mph93%29.77 "Hg1 mi
3:00 PM34 °FFog.5 mph100%29.77 "Hg1 mi
2:30 PM34 °FFog.3 mph100%29.77 "Hg1 mi
2:00 PM34 °FFog.3 mph100%29.80 "Hg1 mi
1:30 PM34 °FFog.5 mph93%29.80 "Hg1 mi
1:00 PM34 °FFog.3 mph100%29.83 "Hg1 mi
12:30 PM34 °FFog.3 mph100%29.83 "Hg1 mi
12:00 PM34 °FFog.5 mph100%29.83 "Hg1 mi
11:30 AM34 °FFog.3 mph100%29.86 "Hg1 mi
11:00 AM34 °FFog.2 mph93%29.89 "Hg1 mi
10:30 AM34 °FFog.1 mph93%29.89 "Hg1 mi
10:00 AM34 °FFog.2 mph93%29.92 "Hg1 mi
9:30 AM32 °FIce fog.2 mph100%29.92 "Hg1 mi
9:00 AM34 °FFog.3 mph93%29.92 "Hg1 mi
8:00 AM34 °FFog.2 mph93%29.95 "Hg2 mi
7:00 AM34 °FFog.1 mph93%29.95 "Hg1 mi
6:30 AM34 °FFog.1 mph93%29.95 "Hg1 mi
6:00 AM32 °FIce fog.2 mph100%29.95 "Hg1 mi
5:30 AM34 °FFog.2 mph93%29.98 "Hg1 mi
5:00 AM34 °FFog.2 mph93%29.98 "Hg1 mi
3:00 AM34 °FFog.2 mph100%30.04 "Hg1 mi
2:00 AM34 °FFog.3 mph93%30.04 "Hg1 mi
1:00 AM34 °FFog.2 mph100%30.07 "Hg1 mi
12:00 AM34 °FFog.2 mph100%30.07 "Hg1 mi
11:00 PM
Tue, Nov 24
34 °FFog.2 mph100%30.09 "Hg1 mi
10:00 PM34 °FFog.1 mph93%30.12 "Hg1 mi
9:30 PM34 °FFog.1 mph100%30.12 "Hg1 mi
9:00 PM34 °FFog.1 mph93%30.12 "Hg1 mi
8:30 PM34 °FFog.No wind93%30.15 "Hg1 mi
8:00 PM34 °FFog.2 mph93%30.15 "Hg1 mi
7:30 PM34 °FFog.2 mph93%30.15 "Hg1 mi
7:00 PM32 °FIce fog.No wind100%30.15 "Hg2 mi
Weather by CustomWeather, © 2015

See weather overviewHow to use our weather pages